User: anonymous   Login
Location: ActonStarParty
(42.4766°N, 71.4538°W)
Time: 03:00:20
(UTC-04:00)
Language:

ATLAS 5 CENTAUR R/B - Orbit

View from above orbital plane
View from above orbital plane
View from above satellite
View from above satellite

Ground track
Ground track

The orbit data is extracted from the following two-line orbital elements,

1 32379U 07060B   15128.24901831 0.00005500  00000-0  16251-2 0    02
2 32379  60.8075 251.6998 5200497 218.2570  90.2675  5.24693296    09
Epoch (UTC): 08 May 2015 05:58:35
Eccentricity: 0.5200497
inclination: 60.8075°
perigee height: 336 km
apogee height: 14886 km
right ascension of ascending node: 251.6998°
argument of perigee: 218.2570°
revolutions per day: 5.24693296
mean anomaly at epoch: 90.2675°
orbit number at epoch: 0

The dashed part of the orbit path shows where the satellite is in the earth's shadow,  

DLR